Regional Weather Roundup
Issued by NWS

Home | Current Version | Previous Version | Text Only | Print | Product List | Glossary Off
Versions: 1 2 3 4 5 6 7 8 9 10 11 12 13 14 15 16 17 18 19 20 21 22 23 24 25 26 27 28 29 30 31 32 33 34 35 36 37 38 39 40 41 42 43 44 45 46 47 48 49 50

000
ASUS43 KLMK 251110
RWRKY
KENTUCKY REGIONAL WEATHER ROUNDUP
NATIONAL WEATHER SERVICE LOUISVILLE KY
700 AM EDT SAT OCT 25 2014

NOTE "FAIR" INDICATES FEW OR NO CLOUDS BELOW 12,000 FEET
WITH NO SIGNIFICANT WEATHER AND/OR OBSTRUCTIONS TO VISIBILITY.

KYZ001>023-026-027-061>063-070>075-251200-
WESTERN AND SOUTH CENTRAL KENTUCKY

CITY           SKY/WX    TMP DP  RH WIND       PRES   REMARKS
PADUCAH        CLEAR     57  53  86 VRB3      30.03S
HENDERSON      CLOUDY   N/A N/A N/A SW9       30.02S
OWENSBORO      CLOUDY    56  54  93 S7        30.03F
HOPKINSVILLE   MOCLDY    52  52 100 S5        30.06R
BOWLING GREEN  PTCLDY    45  43  93 CALM      30.08R FOG
GLASGOW        CLEAR     42  42 100 CALM      30.07F FOG
$$

KYZ024-025-028>034-038-045-046-053-251200-
NORTH CENTRAL KENTUCKY

CITY           SKY/WX    TMP DP  RH WIND       PRES   REMARKS
LOUISVILLE/SDF CLOUDY    50  47  89 SE10      30.02F
LOUISVILLE/LOU MOCLDY    49  47  93 CALM      30.03F
FORT KNOX      MOCLDY    49  47  94 S6        30.03R
$$

KYZ035>037-039>044-047>052-055>060-089>105-251200-
NORTHEAST KENTUCKY

CITY           SKY/WX    TMP DP  RH WIND       PRES   REMARKS
LEXINGTON      CLEAR     48  42  80 SW5       30.05R
COVINGTON      MOCLDY    46  42  86 S7        30.00S
FRANKFORT      CLEAR     42  39  89 CALM      30.04R
$$

KYZ054-064>069-076>088-106>120-251200-
SOUTHEAST KENTUCKY

CITY           SKY/WX    TMP DP  RH WIND       PRES   REMARKS
JACKSON        PTCLDY    42  39  89 CALM      30.07R
LONDON         PTCLDY    41  38  89 CALM      30.09R
SOMERSET       CLEAR     37  37 100 CALM      30.09F
MIDDLESBORO    FOG       38  38 100 CALM      30.12S VSB 1/4
MONTICELLO     SUNNY     39  39 100 CALM      30.10S FOG
$$




USA.gov is the U.S. government's official web portal to all federal, state and local government web resources and services.